Date_Time,Julian_Date,Latitude,Longitude,Instrument_Depth,U,V,Speed,Direction
(yyyy-mm-dd hh:mn:ss UTC),(JD),(+ deg. North),(+ deg. East),(m),(cm/s),(cm/s),(cm/s),(deg True)
1991-02-17 22:00:00 UTC,2448305.416667,23.8283,-82.1967,1000,7.28,-0.39,7.2904,93.0665
1991-02-17 22:30:00 UTC,2448305.437500,23.8283,-82.1967,1000,7.10,-1.17,7.1958,99.3576
1991-02-17 23:00:00 UTC,2448305.458333,23.8283,-82.1967,1000,7.52,-1.48,7.6643,101.1340
1991-02-17 23:30:00 UTC,2448305.479167,23.8283,-82.1967,1000,7.64,-1.79,7.8469,103.1862
1991-02-18 00:00:00 UTC,2448305.500000,23.8283,-82.1967,1000,6.20,-1.38,6.3517,102.5484
1991-02-18 00:30:00 UTC,2448305.520833,23.8283,-82.1967,1000,6.51,-1.28,6.6346,101.1236
1991-02-18 01:00:00 UTC,2448305.541667,23.8283,-82.1967,1000,6.16,-1.13,6.2628,100.3949
1991-02-18 01:30:00 UTC,2448305.562500,23.8283,-82.1967,1000,4.10,-0.94,4.2064,102.9129
1991-02-18 02:00:00 UTC,2448305.583333,23.8283,-82.1967,1000,2.41,-1.04,2.6248,113.3419
1991-02-18 02:30:00 UTC,2448305.604167,23.8283,-82.1967,1000,1.69,-1.00,1.9637,120.6135
1991-02-18 03:00:00 UTC,2448305.625000,23.8283,-82.1967,1000,1.23,-0.86,1.5008,124.9607
1991-02-18 03:30:00 UTC,2448305.645833,23.8283,-82.1967,1000,0.73,-1.31,1.4997,150.8712
1991-02-18 04:00:00 UTC,2448305.666667,23.8283,-82.1967,1000,0.51,-1.41,1.4994,160.1148
1991-02-18 04:30:00 UTC,2448305.687500,23.8283,-82.1967,1000,-0.60,-1.37,1.4956,203.6513
1991-02-18 05:00:00 UTC,2448305.708333,23.8283,-82.1967,1000,-1.96,-2.74,3.3689,215.5772
1991-02-18 05:30:00 UTC,2448305.729167,23.8283,-82.1967,1000,-2.61,-3.18,4.1139,219.3776
1991-02-18 06:00:00 UTC,2448305.750000,23.8283,-82.1967,1000,-3.08,-2.44,3.9294,231.6135
1991-02-18 06:30:00 UTC,2448305.770833,23.8283,-82.1967,1000,-3.15,-2.79,4.2079,228.4682
1991-02-18 07:00:00 UTC,2448305.791667,23.8283,-82.1967,1000,-3.70,-3.00,4.7634,230.9645
1991-02-18 07:30:00 UTC,2448305.812500,23.8283,-82.1967,1000,-4.29,-3.75,5.6979,228.8425
1991-02-18 08:00:00 UTC,2448305.833333,23.8283,-82.1967,1000,-4.98,-3.80,6.2642,232.6545
1991-02-18 08:30:00 UTC,2448305.854167,23.8283,-82.1967,1000,-5.47,-4.07,6.8180,233.3486
1991-02-18 09:00:00 UTC,2448305.875000,23.8283,-82.1967,1000,-5.36,-3.23,6.2580,238.9263
1991-02-18 09:30:00 UTC,2448305.895833,23.8283,-82.1967,1000,-4.24,-2.38,4.8623,240.6936
1991-02-18 10:00:00 UTC,2448305.916667,23.8283,-82.1967,1000,-3.07,-1.39,3.3700,245.6405
1991-02-18 10:30:00 UTC,2448305.937500,23.8283,-82.1967,1000,-2.21,-0.38,2.2424,260.2437
1991-02-18 11:00:00 UTC,2448305.958333,23.8283,-82.1967,1000,-1.50,-0.05,1.5008,268.0909
1991-02-18 11:30:00 UTC,2448305.979167,23.8283,-82.1967,1000,-2.15,0.12,2.1533,273.1946
1991-02-18 12:00:00 UTC,2448306.000000,23.8283,-82.1967,1000,-3.21,0.64,3.2732,281.2756
1991-02-18 12:30:00 UTC,2448306.020833,23.8283,-82.1967,1000,-3.83,1.74,4.2067,294.4327
1991-02-18 13:00:00 UTC,2448306.041667,23.8283,-82.1967,1000,-4.22,1.77,4.5762,292.7547
1991-02-18 13:30:00 UTC,2448306.062500,23.8283,-82.1967,1000,-3.74,1.48,4.0222,291.5898
1991-02-18 14:00:00 UTC,2448306.083333,23.8283,-82.1967,1000,-5.02,2.28,5.5135,294.4268
1991-02-18 14:30:00 UTC,2448306.104167,23.8283,-82.1967,1000,-4.85,3.66,6.0760,307.0396
1991-02-18 15:00:00 UTC,2448306.125000,23.8283,-82.1967,1000,-4.98,4.52,6.7254,312.2278
1991-02-18 15:30:00 UTC,2448306.145833,23.8283,-82.1967,1000,-5.80,4.26,7.1964,306.2966
1991-02-18 16:00:00 UTC,2448306.166667,23.8283,-82.1967,1000,-5.16,3.70,6.3495,305.6426
1991-02-18 16:30:00 UTC,2448306.187500,23.8283,-82.1967,1000,-5.07,4.84,7.0093,313.6705
1991-02-18 17:00:00 UTC,2448306.208333,23.8283,-82.1967,1000,-4.86,5.30,7.1909,317.4798
1991-02-18 17:30:00 UTC,2448306.229167,23.8283,-82.1967,1000,-5.38,5.32,7.5662,314.6787
1991-02-18 18:00:00 UTC,2448306.250000,23.8283,-82.1967,1000,-4.15,4.69,6.2625,318.4956
1991-02-18 18:30:00 UTC,2448306.270833,23.8283,-82.1967,1000,-2.45,3.87,4.5803,327.6631
1991-02-18 19:00:00 UTC,2448306.291667,23.8283,-82.1967,1000,-1.70,3.22,3.6412,332.1682
1991-02-18 19:30:00 UTC,2448306.312500,23.8283,-82.1967,1000,-1.67,3.86,4.2058,336.6046
1991-02-18 20:00:00 UTC,2448306.333333,23.8283,-82.1967,1000,0.34,3.82,3.8351,5.0862
1991-02-18 20:30:00 UTC,2448306.354167,23.8283,-82.1967,1000,-0.01,3.46,3.4600,359.8344
1991-02-18 21:00:00 UTC,2448306.375000,23.8283,-82.1967,1000,0.71,3.20,3.2778,12.5098
1991-02-18 21:30:00 UTC,2448306.395833,23.8283,-82.1967,1000,1.72,3.94,4.2991,23.5836
1991-02-18 22:00:00 UTC,2448306.416667,23.8283,-82.1967,1000,2.48,3.96,4.6725,32.0574
1991-02-18 22:30:00 UTC,2448306.437500,23.8283,-82.1967,1000,3.29,4.07,5.2334,38.9505
1991-02-18 23:00:00 UTC,2448306.458333,23.8283,-82.1967,1000,4.24,4.86,6.4496,41.1024
1991-02-18 23:30:00 UTC,2448306.479167,23.8283,-82.1967,1000,4.82,4.55,6.6283,46.6505
1991-02-19 00:00:00 UTC,2448306.500000,23.8283,-82.1967,1000,5.69,4.24,7.0960,53.3077
1991-02-19 00:30:00 UTC,2448306.520833,23.8283,-82.1967,1000,5.14,3.06,5.9819,59.2334
1991-02-19 01:00:00 UTC,2448306.541667,23.8283,-82.1967,1000,6.08,1.48,6.2575,76.3191
1991-02-19 01:30:00 UTC,2448306.562500,23.8283,-82.1967,1000,5.20,0.55,5.2290,83.9623
1991-02-19 02:00:00 UTC,2448306.583333,23.8283,-82.1967,1000,4.27,0.47,4.2958,83.7187
1991-02-19 02:30:00 UTC,2448306.604167,23.8283,-82.1967,1000,3.45,0.19,3.4552,86.8478
1991-02-19 03:00:00 UTC,2448306.625000,23.8283,-82.1967,1000,2.60,-0.33,2.6209,97.2335
1991-02-19 03:30:00 UTC,2448306.645833,23.8283,-82.1967,1000,2.66,-0.52,2.7104,101.0612
1991-02-19 04:00:00 UTC,2448306.666667,23.8283,-82.1967,1000,1.96,-0.13,1.9643,93.7947
1991-02-19 04:30:00 UTC,2448306.687500,23.8283,-82.1967,1000,1.50,0.10,1.5033,86.1859
1991-02-19 05:00:00 UTC,2448306.708333,23.8283,-82.1967,1000,1.49,0.13,1.4957,85.0137
1991-02-19 05:30:00 UTC,2448306.729167,23.8283,-82.1967,1000,1.49,-0.19,1.5021,97.2670
1991-02-19 06:00:00 UTC,2448306.750000,23.8283,-82.1967,1000,0.67,-2.05,2.1567,161.9011
1991-02-19 06:30:00 UTC,2448306.770833,23.8283,-82.1967,1000,-1.02,-3.40,3.5497,196.6992
1991-02-19 07:00:00 UTC,2448306.791667,23.8283,-82.1967,1000,-1.24,-4.02,4.2069,197.1428
1991-02-19 07:30:00 UTC,2448306.812500,23.8283,-82.1967,1000,-2.61,-4.86,5.5165,208.2375
1991-02-19 08:00:00 UTC,2448306.833333,23.8283,-82.1967,1000,-3.15,-3.83,4.9590,219.4357
1991-02-19 08:30:00 UTC,2448306.854167,23.8283,-82.1967,1000,-4.10,-4.10,5.7983,225.0000
1991-02-19 09:00:00 UTC,2448306.875000,23.8283,-82.1967,1000,-3.56,-3.31,4.8610,227.0841
1991-02-19 09:30:00 UTC,2448306.895833,23.8283,-82.1967,1000,-3.25,-3.09,4.4845,226.4457
1991-02-19 10:00:00 UTC,2448306.916667,23.8283,-82.1967,1000,-2.75,-3.89,4.7639,215.2581
1991-02-19 10:30:00 UTC,2448306.937500,23.8283,-82.1967,1000,-2.51,-3.94,4.6716,212.4994
1991-02-19 11:00:00 UTC,2448306.958333,23.8283,-82.1967,1000,-2.53,-3.82,4.5818,213.5167
1991-02-19 11:30:00 UTC,2448306.979167,23.8283,-82.1967,1000,-2.28,-3.31,4.0193,214.5599
1991-02-19 12:00:00 UTC,2448307.000000,23.8283,-82.1967,1000,-2.59,-3.07,4.0166,220.1526
1991-02-19 12:30:00 UTC,2448307.020833,23.8283,-82.1967,1000,-2.75,-2.10,3.4601,232.6333
1991-02-19 13:00:00 UTC,2448307.041667,23.8283,-82.1967,1000,-2.53,-1.76,3.0820,235.1755
1991-02-19 13:30:00 UTC,2448307.062500,23.8283,-82.1967,1000,-3.77,-0.67,3.8291,259.9227
1991-02-19 14:00:00 UTC,2448307.083333,23.8283,-82.1967,1000,-4.45,-0.60,4.4903,262.3210
1991-02-19 14:30:00 UTC,2448307.104167,23.8283,-82.1967,1000,-5.09,-0.72,5.1407,261.9487
1991-02-19 15:00:00 UTC,2448307.125000,23.8283,-82.1967,1000,-4.67,-0.95,4.7656,258.5015
1991-02-19 15:30:00 UTC,2448307.145833,23.8283,-82.1967,1000,-4.24,-0.73,4.3024,260.2312
1991-02-19 16:00:00 UTC,2448307.166667,23.8283,-82.1967,1000,-4.06,-0.67,4.1149,260.6292
1991-02-19 16:30:00 UTC,2448307.187500,23.8283,-82.1967,1000,-4.58,-0.03,4.5801,269.6247
1991-02-19 17:00:00 UTC,2448307.208333,23.8283,-82.1967,1000,-4.66,-0.40,4.6771,265.0939
1991-02-19 17:30:00 UTC,2448307.229167,23.8283,-82.1967,1000,-4.77,0.03,4.7701,270.3604
1991-02-19 18:00:00 UTC,2448307.250000,23.8283,-82.1967,1000,-5.12,0.44,5.1389,274.9118
1991-02-19 18:30:00 UTC,2448307.270833,23.8283,-82.1967,1000,-4.57,0.31,4.5805,273.8806
1991-02-19 19:00:00 UTC,2448307.291667,23.8283,-82.1967,1000,-4.08,0.53,4.1143,277.4014
1991-02-19 19:30:00 UTC,2448307.312500,23.8283,-82.1967,1000,-3.08,0.21,3.0872,273.9005
1991-02-19 20:00:00 UTC,2448307.333333,23.8283,-82.1967,1000,-2.34,0.03,2.3402,270.7345
1991-02-19 20:30:00 UTC,2448307.354167,23.8283,-82.1967,1000,-1.78,-0.03,1.7803,269.0344
1991-02-19 21:00:00 UTC,2448307.375000,23.8283,-82.1967,1000,-1.50,-0.10,1.5033,266.1859
1991-02-19 21:30:00 UTC,2448307.395833,23.8283,-82.1967,1000,-1.48,-0.24,1.4993,260.7890
1991-02-19 22:00:00 UTC,2448307.416667,23.8283,-82.1967,1000,-1.48,-0.26,1.5027,260.0362
1991-02-19 22:30:00 UTC,2448307.437500,23.8283,-82.1967,1000,-1.48,-0.23,1.4978,261.1666
1991-02-19 23:00:00 UTC,2448307.458333,23.8283,-82.1967,1000,-1.49,0.13,1.4957,274.9863
1991-02-19 23:30:00 UTC,2448307.479167,23.8283,-82.1967,1000,-1.48,0.22,1.4963,278.4550
1991-02-20 00:00:00 UTC,2448307.500000,23.8283,-82.1967,1000,1.02,1.10,1.5001,42.8389
1991-02-20 00:30:00 UTC,2448307.520833,23.8283,-82.1967,1000,1.25,1.52,1.9680,39.4328
1991-02-20 01:00:00 UTC,2448307.541667,23.8283,-82.1967,1000,1.61,1.82,2.4299,41.4965
1991-02-20 01:30:00 UTC,2448307.562500,23.8283,-82.1967,1000,2.70,1.50,3.0887,60.9454
1991-02-20 02:00:00 UTC,2448307.583333,23.8283,-82.1967,1000,2.41,1.44,2.8074,59.1412
1991-02-20 02:30:00 UTC,2448307.604167,23.8283,-82.1967,1000,2.61,1.64,3.0825,57.8567
1991-02-20 03:00:00 UTC,2448307.625000,23.8283,-82.1967,1000,2.16,1.49,2.6241,55.4015
1991-02-20 03:30:00 UTC,2448307.645833,23.8283,-82.1967,1000,1.83,1.31,2.2506,54.4031
1991-02-20 04:00:00 UTC,2448307.666667,23.8283,-82.1967,1000,1.23,0.86,1.5008,55.0393
1991-02-20 04:30:00 UTC,2448307.687500,23.8283,-82.1967,1000,1.20,0.90,1.5000,53.1301
1991-02-20 05:00:00 UTC,2448307.708333,23.8283,-82.1967,1000,1.35,0.65,1.4983,64.2900
1991-02-20 05:30:00 UTC,2448307.729167,23.8283,-82.1967,1000,0.24,-1.67,1.6872,171.8219
1991-02-20 06:00:00 UTC,2448307.750000,23.8283,-82.1967,1000,-0.51,-1.51,1.5938,198.6623
1991-02-20 06:30:00 UTC,2448307.770833,23.8283,-82.1967,1000,-1.75,-2.54,3.0845,214.5659
1991-02-20 07:00:00 UTC,2448307.791667,23.8283,-82.1967,1000,-2.76,-3.53,4.4809,218.0208
1991-02-20 07:30:00 UTC,2448307.812500,23.8283,-82.1967,1000,-2.71,-2.84,3.9255,223.6582
1991-02-20 08:00:00 UTC,2448307.833333,23.8283,-82.1967,1000,-3.18,-2.46,4.0204,232.2750
1991-02-20 08:30:00 UTC,2448307.854167,23.8283,-82.1967,1000,-2.90,-1.89,3.4615,236.9067
1991-02-20 09:00:00 UTC,2448307.875000,23.8283,-82.1967,1000,-3.17,-1.99,3.7429,237.8810
1991-02-20 09:30:00 UTC,2448307.895833,23.8283,-82.1967,1000,-3.68,-2.40,4.3934,236.8887
1991-02-20 10:00:00 UTC,2448307.916667,23.8283,-82.1967,1000,-3.68,-2.04,4.2076,240.9983
1991-02-20 10:30:00 UTC,2448307.937500,23.8283,-82.1967,1000,-3.42,-1.92,3.9221,240.6900
1991-02-20 11:00:00 UTC,2448307.958333,23.8283,-82.1967,1000,-2.71,-1.66,3.1780,238.5106
1991-02-20 11:30:00 UTC,2448307.979167,23.8283,-82.1967,1000,-1.92,-1.34,2.3414,235.0882
1991-02-20 12:00:00 UTC,2448308.000000,23.8283,-82.1967,1000,-1.31,-0.91,1.5951,235.2140
1991-02-20 12:30:00 UTC,2448308.020833,23.8283,-82.1967,1000,-1.66,-1.05,1.9642,237.6854
1991-02-20 13:00:00 UTC,2448308.041667,23.8283,-82.1967,1000,-1.24,-0.84,1.4977,235.8855
1991-02-20 13:30:00 UTC,2448308.062500,23.8283,-82.1967,1000,-1.27,-0.80,1.5010,237.7923
1991-02-20 14:00:00 UTC,2448308.083333,23.8283,-82.1967,1000,-1.29,-0.77,1.5023,239.1671
1991-02-20 14:30:00 UTC,2448308.104167,23.8283,-82.1967,1000,-1.16,-0.95,1.4994,230.6837
1991-02-20 15:00:00 UTC,2448308.125000,23.8283,-82.1967,1000,-1.78,-1.37,2.2462,232.4159
1991-02-20 15:30:00 UTC,2448308.145833,23.8283,-82.1967,1000,-2.38,-1.66,2.9017,235.1050
1991-02-20 16:00:00 UTC,2448308.166667,23.8283,-82.1967,1000,-2.75,-1.94,3.3654,234.7988
1991-02-20 16:30:00 UTC,2448308.187500,23.8283,-82.1967,1000,-2.07,-1.44,2.5216,235.1755
1991-02-20 17:00:00 UTC,2448308.208333,23.8283,-82.1967,1000,-2.78,-1.54,3.1780,241.0154
1991-02-20 17:30:00 UTC,2448308.229167,23.8283,-82.1967,1000,-3.62,-1.75,4.0208,244.1997
1991-02-20 18:00:00 UTC,2448308.250000,23.8283,-82.1967,1000,-3.68,-1.36,3.9233,249.7174
1991-02-20 18:30:00 UTC,2448308.270833,23.8283,-82.1967,1000,-3.53,-1.25,3.7448,250.5006
1991-02-20 19:00:00 UTC,2448308.291667,23.8283,-82.1967,1000,-3.39,-0.69,3.4595,258.4952
1991-02-20 19:30:00 UTC,2448308.312500,23.8283,-82.1967,1000,-3.36,-0.83,3.4610,256.1244
1991-02-20 20:00:00 UTC,2448308.333333,23.8283,-82.1967,1000,-2.55,-0.62,2.6243,256.3344
1991-02-20 20:30:00 UTC,2448308.354167,23.8283,-82.1967,1000,-2.71,-0.05,2.7105,268.9430
1991-02-20 21:00:00 UTC,2448308.375000,23.8283,-82.1967,1000,-2.75,-0.92,2.8998,251.5026
1991-02-20 21:30:00 UTC,2448308.395833,23.8283,-82.1967,1000,-2.24,-0.19,2.2480,265.1517
1991-02-20 22:00:00 UTC,2448308.416667,23.8283,-82.1967,1000,-1.49,-0.20,1.5034,262.3550
1991-02-20 22:30:00 UTC,2448308.437500,23.8283,-82.1967,1000,-1.48,-0.27,1.5044,259.6611
1991-02-20 23:00:00 UTC,2448308.458333,23.8283,-82.1967,1000,-1.50,-0.09,1.5027,266.5664
1991-02-20 23:30:00 UTC,2448308.479167,23.8283,-82.1967,1000,-1.48,-0.24,1.4993,260.7890
1991-02-21 00:00:00 UTC,2448308.500000,23.8283,-82.1967,1000,-1.48,-0.24,1.4993,260.7890
1991-02-21 00:30:00 UTC,2448308.520833,23.8283,-82.1967,1000,-1.50,-0.09,1.5027,266.5664
1991-02-21 01:00:00 UTC,2448308.541667,23.8283,-82.1967,1000,-1.50,0.06,1.5012,272.2906
1991-02-21 01:30:00 UTC,2448308.562500,23.8283,-82.1967,1000,-1.49,0.16,1.4986,276.1291
1991-02-21 02:00:00 UTC,2448308.583333,23.8283,-82.1967,1000,-1.48,0.26,1.5027,279.9638
1991-02-21 02:30:00 UTC,2448308.604167,23.8283,-82.1967,1000,-1.41,0.50,1.4960,289.5250
1991-02-21 03:00:00 UTC,2448308.625000,23.8283,-82.1967,1000,-1.00,1.12,1.5015,318.2397
1991-02-21 03:30:00 UTC,2448308.645833,23.8283,-82.1967,1000,-1.12,1.00,1.5015,311.7603
1991-02-21 04:00:00 UTC,2448308.666667,23.8283,-82.1967,1000,-1.19,0.92,1.5042,307.7079
1991-02-21 04:30:00 UTC,2448308.687500,23.8283,-82.1967,1000,-1.28,0.79,1.5042,301.6824
1991-02-21 05:00:00 UTC,2448308.708333,23.8283,-82.1967,1000,-1.30,0.74,1.4959,299.6499
1991-02-21 05:30:00 UTC,2448308.729167,23.8283,-82.1967,1000,-1.45,0.85,1.6808,300.3791
1991-02-21 06:00:00 UTC,2448308.750000,23.8283,-82.1967,1000,-3.42,1.51,3.7385,293.8224
1991-02-21 06:30:00 UTC,2448308.770833,23.8283,-82.1967,1000,-3.60,1.80,4.0249,296.5651
1991-02-21 07:00:00 UTC,2448308.791667,23.8283,-82.1967,1000,-4.04,1.96,4.4903,295.8803
1991-02-21 07:30:00 UTC,2448308.812500,23.8283,-82.1967,1000,-4.35,1.70,4.6704,291.3458
1991-02-21 08:00:00 UTC,2448308.833333,23.8283,-82.1967,1000,-4.75,1.40,4.9520,286.4222
1991-02-21 08:30:00 UTC,2448308.854167,23.8283,-82.1967,1000,-5.19,0.70,5.2370,277.6814
1991-02-21 09:00:00 UTC,2448308.875000,23.8283,-82.1967,1000,-6.03,0.70,6.0705,276.6216
1991-02-21 09:30:00 UTC,2448308.895833,23.8283,-82.1967,1000,-6.42,0.59,6.4471,275.2508
1991-02-21 10:00:00 UTC,2448308.916667,23.8283,-82.1967,1000,-5.78,-0.32,5.7889,266.8311
1991-02-21 10:30:00 UTC,2448308.937500,23.8283,-82.1967,1000,-5.44,-1.35,5.6050,256.0629
1991-02-21 11:00:00 UTC,2448308.958333,23.8283,-82.1967,1000,-5.13,-2.48,5.6980,244.1994
1991-02-21 11:30:00 UTC,2448308.979167,23.8283,-82.1967,1000,-5.29,-2.80,5.9853,242.1077
1991-02-21 12:00:00 UTC,2448309.000000,23.8283,-82.1967,1000,-4.97,-2.59,5.6044,242.4748
1991-02-21 12:30:00 UTC,2448309.020833,23.8283,-82.1967,1000,-4.44,-2.60,5.1453,239.6474
1991-02-21 13:00:00 UTC,2448309.041667,23.8283,-82.1967,1000,-3.67,-1.86,4.1144,243.1236
1991-02-21 13:30:00 UTC,2448309.062500,23.8283,-82.1967,1000,-3.79,-2.22,4.3923,239.6403
1991-02-21 14:00:00 UTC,2448309.083333,23.8283,-82.1967,1000,-4.03,-1.98,4.4901,243.8344
1991-02-21 14:30:00 UTC,2448309.104167,23.8283,-82.1967,1000,-3.64,-1.47,3.9256,248.0089
1991-02-21 15:00:00 UTC,2448309.125000,23.8283,-82.1967,1000,-2.85,-1.42,3.1842,243.5154
1991-02-21 15:30:00 UTC,2448309.145833,23.8283,-82.1967,1000,-3.35,-2.05,3.9275,238.5359
1991-02-21 16:00:00 UTC,2448309.166667,23.8283,-82.1967,1000,-3.93,-1.96,4.3916,243.4933
1991-02-21 16:30:00 UTC,2448309.187500,23.8283,-82.1967,1000,-4.52,-1.51,4.7656,251.5270
1991-02-21 17:00:00 UTC,2448309.208333,23.8283,-82.1967,1000,-4.29,-1.32,4.4885,252.8973
1991-02-21 17:30:00 UTC,2448309.229167,23.8283,-82.1967,1000,-5.46,-1.64,5.7010,253.2815
1991-02-21 18:00:00 UTC,2448309.250000,23.8283,-82.1967,1000,-5.96,-1.59,6.1684,255.0626
1991-02-21 18:30:00 UTC,2448309.270833,23.8283,-82.1967,1000,-6.22,-0.72,6.2615,263.3971
1991-02-21 19:00:00 UTC,2448309.291667,23.8283,-82.1967,1000,-6.62,-0.36,6.6298,266.8873
1991-02-21 19:30:00 UTC,2448309.312500,23.8283,-82.1967,1000,-5.60,-0.24,5.6051,267.5460
1991-02-21 20:00:00 UTC,2448309.333333,23.8283,-82.1967,1000,-4.94,-0.33,4.9510,266.1782
1991-02-21 20:30:00 UTC,2448309.354167,23.8283,-82.1967,1000,-4.49,-0.00,4.4900,270.0000
1991-02-21 21:00:00 UTC,2448309.375000,23.8283,-82.1967,1000,-4.39,-0.05,4.3903,269.3475
1991-02-21 21:30:00 UTC,2448309.395833,23.8283,-82.1967,1000,-3.97,-0.66,4.0245,260.5611
1991-02-21 22:00:00 UTC,2448309.416667,23.8283,-82.1967,1000,-4.18,-0.48,4.2075,263.4493
1991-02-21 22:30:00 UTC,2448309.437500,23.8283,-82.1967,1000,-2.52,-0.11,2.5224,267.5006
1991-02-21 23:00:00 UTC,2448309.458333,23.8283,-82.1967,1000,-1.59,-0.01,1.5900,269.6396
1991-02-21 23:30:00 UTC,2448309.479167,23.8283,-82.1967,1000,-1.48,0.24,1.4993,279.2110
1991-02-22 00:00:00 UTC,2448309.500000,23.8283,-82.1967,1000,-1.45,0.39,1.5015,285.0543
1991-02-22 00:30:00 UTC,2448309.520833,23.8283,-82.1967,1000,0.37,1.74,1.7789,12.0048
1991-02-22 01:00:00 UTC,2448309.541667,23.8283,-82.1967,1000,0.88,2.37,2.5281,20.3704
1991-02-22 01:30:00 UTC,2448309.562500,23.8283,-82.1967,1000,1.97,2.13,2.9013,42.7652
1991-02-22 02:00:00 UTC,2448309.583333,23.8283,-82.1967,1000,1.87,1.83,2.6164,45.6194
1991-02-22 02:30:00 UTC,2448309.604167,23.8283,-82.1967,1000,1.91,1.65,2.5240,49.1771
1991-02-22 03:00:00 UTC,2448309.625000,23.8283,-82.1967,1000,1.83,1.46,2.3410,51.4166
1991-02-22 03:30:00 UTC,2448309.645833,23.8283,-82.1967,1000,1.85,1.28,2.2496,55.3209
1991-02-22 04:00:00 UTC,2448309.666667,23.8283,-82.1967,1000,1.72,1.14,2.0635,56.4639
1991-02-22 04:30:00 UTC,2448309.687500,23.8283,-82.1967,1000,1.24,0.84,1.4977,55.8855
1991-02-22 05:00:00 UTC,2448309.708333,23.8283,-82.1967,1000,1.37,0.62,1.5038,65.6506
1991-02-22 05:30:00 UTC,2448309.729167,23.8283,-82.1967,1000,1.29,0.76,1.4972,59.4956
1991-02-22 06:00:00 UTC,2448309.750000,23.8283,-82.1967,1000,1.40,0.55,1.5042,68.5523
1991-02-22 06:30:00 UTC,2448309.770833,23.8283,-82.1967,1000,1.22,0.87,1.4984,54.5068
1991-02-22 07:00:00 UTC,2448309.791667,23.8283,-82.1967,1000,-0.10,-1.78,1.7828,183.2155
1991-02-22 07:30:00 UTC,2448309.812500,23.8283,-82.1967,1000,-0.39,-1.45,1.5015,195.0543
1991-02-22 08:00:00 UTC,2448309.833333,23.8283,-82.1967,1000,-1.45,-2.51,2.8987,210.0146
1991-02-22 08:30:00 UTC,2448309.854167,23.8283,-82.1967,1000,-2.44,-3.20,4.0241,217.3255
1991-02-22 09:00:00 UTC,2448309.875000,23.8283,-82.1967,1000,-3.20,-3.01,4.3932,226.7525
1991-02-22 09:30:00 UTC,2448309.895833,23.8283,-82.1967,1000,-4.46,-3.85,5.8919,229.1983
1991-02-22 10:00:00 UTC,2448309.916667,23.8283,-82.1967,1000,-5.12,-4.21,6.6286,230.5707
1991-02-22 10:30:00 UTC,2448309.937500,23.8283,-82.1967,1000,-5.52,-4.16,6.9120,232.9975
1991-02-22 11:00:00 UTC,2448309.958333,23.8283,-82.1967,1000,-5.27,-4.18,6.7265,231.5797
1991-02-22 11:30:00 UTC,2448309.979167,23.8283,-82.1967,1000,-6.09,-4.64,7.6562,232.6961
1991-02-22 12:00:00 UTC,2448310.000000,23.8283,-82.1967,1000,-5.78,-5.58,8.0340,226.0086
1991-02-22 12:30:00 UTC,2448310.020833,23.8283,-82.1967,1000,-6.73,-6.34,9.2460,226.7092
1991-02-22 13:00:00 UTC,2448310.041667,23.8283,-82.1967,1000,-6.54,-5.86,8.7813,228.1389
1991-02-22 13:30:00 UTC,2448310.062500,23.8283,-82.1967,1000,-5.34,-4.39,6.9129,230.5765
1991-02-22 14:00:00 UTC,2448310.083333,23.8283,-82.1967,1000,-4.46,-3.40,5.6082,232.6806
1991-02-22 14:30:00 UTC,2448310.104167,23.8283,-82.1967,1000,-4.28,-2.68,5.0498,237.9465
1991-02-22 15:00:00 UTC,2448310.125000,23.8283,-82.1967,1000,-5.28,-2.39,5.7957,245.6461
1991-02-22 15:30:00 UTC,2448310.145833,23.8283,-82.1967,1000,-6.06,-2.19,6.4436,250.1309
1991-02-22 16:00:00 UTC,2448310.166667,23.8283,-82.1967,1000,-5.07,-1.29,5.2315,255.7247
1991-02-22 16:30:00 UTC,2448310.187500,23.8283,-82.1967,1000,-6.03,-1.69,6.2623,254.3437
1991-02-22 17:00:00 UTC,2448310.208333,23.8283,-82.1967,1000,-5.68,-1.15,5.7952,258.5544
1991-02-22 17:30:00 UTC,2448310.229167,23.8283,-82.1967,1000,-6.31,-0.73,6.3521,263.4008
1991-02-22 18:00:00 UTC,2448310.250000,23.8283,-82.1967,1000,-6.35,0.23,6.3542,272.0744
1991-02-22 18:30:00 UTC,2448310.270833,23.8283,-82.1967,1000,-6.07,0.04,6.0701,270.3776
1991-02-22 19:00:00 UTC,2448310.291667,23.8283,-82.1967,1000,-6.33,0.51,6.3505,274.6063
1991-02-22 19:30:00 UTC,2448310.312500,23.8283,-82.1967,1000,-7.32,1.50,7.4721,281.5806
1991-02-22 20:00:00 UTC,2448310.333333,23.8283,-82.1967,1000,-8.22,1.21,8.3086,278.3739
1991-02-22 20:30:00 UTC,2448310.354167,23.8283,-82.1967,1000,-7.51,0.92,7.5661,276.9841
1991-02-22 21:00:00 UTC,2448310.375000,23.8283,-82.1967,1000,-7.19,-0.13,7.1912,268.9642
1991-02-22 21:30:00 UTC,2448310.395833,23.8283,-82.1967,1000,-6.73,0.13,6.7313,271.1066
1991-02-22 22:00:00 UTC,2448310.416667,23.8283,-82.1967,1000,-6.26,0.19,6.2629,271.7385
1991-02-22 22:30:00 UTC,2448310.437500,23.8283,-82.1967,1000,-5.50,0.37,5.5124,273.8486
1991-02-22 23:00:00 UTC,2448310.458333,23.8283,-82.1967,1000,-4.69,0.87,4.7700,280.5090
1991-02-22 23:30:00 UTC,2448310.479167,23.8283,-82.1967,1000,-2.37,1.83,2.9943,307.6736
1991-02-23 00:00:00 UTC,2448310.500000,23.8283,-82.1967,1000,-1.13,1.12,1.5910,314.7454
1991-02-23 00:30:00 UTC,2448310.520833,23.8283,-82.1967,1000,-0.64,1.36,1.5031,334.7989
1991-02-23 01:00:00 UTC,2448310.541667,23.8283,-82.1967,1000,-0.13,1.49,1.4957,355.0137
1991-02-23 01:30:00 UTC,2448310.562500,23.8283,-82.1967,1000,0.07,1.50,1.5016,2.6719
1991-02-23 02:00:00 UTC,2448310.583333,23.8283,-82.1967,1000,0.67,1.55,1.6886,23.3768
1991-02-23 02:30:00 UTC,2448310.604167,23.8283,-82.1967,1000,3.49,4.26,5.5071,39.3260
1991-02-23 03:00:00 UTC,2448310.625000,23.8283,-82.1967,1000,5.72,4.21,7.1023,53.6464
1991-02-23 03:30:00 UTC,2448310.645833,23.8283,-82.1967,1000,5.64,4.00,6.9144,54.6550
1991-02-23 04:00:00 UTC,2448310.666667,23.8283,-82.1967,1000,5.84,3.87,7.0059,56.4687
1991-02-23 04:30:00 UTC,2448310.687500,23.8283,-82.1967,1000,6.20,3.64,7.1895,59.5829
1991-02-23 05:00:00 UTC,2448310.708333,23.8283,-82.1967,1000,6.17,3.32,7.0065,61.7159
1991-02-23 05:30:00 UTC,2448310.729167,23.8283,-82.1967,1000,5.90,1.44,6.0732,76.2841
1991-02-23 06:00:00 UTC,2448310.750000,23.8283,-82.1967,1000,5.00,0.68,5.0460,82.2553
1991-02-23 06:30:00 UTC,2448310.770833,23.8283,-82.1967,1000,4.11,0.15,4.1127,87.9098
1991-02-23 07:00:00 UTC,2448310.791667,23.8283,-82.1967,1000,2.24,-0.16,2.2457,94.0856
1991-02-23 07:30:00 UTC,2448310.812500,23.8283,-82.1967,1000,1.50,-0.03,1.5003,91.1458
1991-02-23 08:00:00 UTC,2448310.833333,23.8283,-82.1967,1000,1.00,-1.12,1.5015,138.2397
1991-02-23 08:30:00 UTC,2448310.854167,23.8283,-82.1967,1000,0.47,-1.43,1.5053,161.8058
1991-02-23 09:00:00 UTC,2448310.875000,23.8283,-82.1967,1000,-0.66,-2.15,2.2490,197.0653
1991-02-23 09:30:00 UTC,2448310.895833,23.8283,-82.1967,1000,-1.09,-4.16,4.3004,194.6825
1991-02-23 10:00:00 UTC,2448310.916667,23.8283,-82.1967,1000,-1.71,-4.65,4.9545,200.1906
1991-02-23 10:30:00 UTC,2448310.937500,23.8283,-82.1967,1000,-2.62,-4.53,5.2331,210.0437
1991-02-23 11:00:00 UTC,2448310.958333,23.8283,-82.1967,1000,-2.86,-4.27,5.1393,213.8138
1991-02-23 11:30:00 UTC,2448310.979167,23.8283,-82.1967,1000,-3.28,-4.20,5.3290,217.9881
1991-02-23 12:00:00 UTC,2448311.000000,23.8283,-82.1967,1000,-5.13,-4.49,6.8174,228.8062
1991-02-23 12:30:00 UTC,2448311.020833,23.8283,-82.1967,1000,-6.60,-4.42,7.9433,236.1899